Location: Unspecified
(42.9300°N, 71.1866°W)
Time: 19:06:53
(UTC-04:00)

Resurs 1-4 Rocket - Visible Passes

Search period start: 20 August 2017 00:00
Search period end: 30 August 2017 00:00
Orbit: 799 x 815 km, 98.5° (Epoch: 20 August)

Date Brightness Start Highest point End Pass type
(mag) Time Alt. Az. Time Alt. Az. Time Alt. Az.
20 Aug 3.7 02:09:00 10° NE 02:13:20 25° E 02:13:24 25° E visible
20 Aug 2.6 03:48:22 10° N 03:53:18 42° WNW 03:54:29 36° W visible
21 Aug 4.3 01:45:29 10° NE 01:48:27 15° E 01:48:27 15° E visible
21 Aug 2.0 03:23:36 10° N 03:28:50 69° WNW 03:29:31 61° WSW visible
22 Aug 2.1 02:59:01 10° NNE 03:04:17 73° ESE 03:04:34 71° SE visible
22 Aug 3.8 04:40:21 10° NNW 04:43:30 16° WNW 04:45:39 13° W visible
23 Aug 2.9 02:34:37 10° NNE 02:39:37 44° E 02:39:37 44° E visible
23 Aug 3.3 04:14:58 10° N 04:19:14 26° WNW 04:20:42 22° W visible
24 Aug 3.7 02:10:31 10° NE 02:14:40 26° E 02:14:40 26° E visible
24 Aug 2.6 03:49:58 10° N 03:54:52 40° WNW 03:55:44 37° W visible
25 Aug 4.3 01:46:56 10° NE 01:49:42 16° E 01:49:42 16° E visible
25 Aug 2.0 03:25:11 10° N 03:30:24 66° WNW 03:30:47 64° W visible
26 Aug 2.1 03:00:35 10° NNE 03:05:49 76° E 03:05:49 76° E visible
26 Aug 3.8 04:42:00 10° NNW 04:45:04 16° WNW 04:46:54 13° W visible
27 Aug 2.9 02:36:11 10° NNE 02:40:52 45° E 02:40:52 45° E visible
27 Aug 3.3 04:16:36 10° N 04:20:47 25° WNW 04:21:56 23° W visible
28 Aug 3.7 02:12:02 10° NE 02:15:54 27° E 02:15:54 27° E visible
28 Aug 2.7 03:51:34 10° N 03:56:25 39° WNW 03:56:59 38° W visible
29 Aug 4.4 01:48:24 10° NE 01:50:57 16° E 01:50:57 16° E visible
29 Aug 2.1 03:26:45 10° N 03:31:58 64° WNW 03:32:01 64° WNW visible
